Location: Hermaringen
(48.5952°N, 10.2585°E)
Time: 22:06:22
(UTC+00:00)

Altair - Pass Details

Date: 23 February 2026
Orbit: 1502 x 1682 km, 47.2° (Epoch: 10 March)

Event Time Altitude Azimuth Distance (km) Brightness Sun altitude
Exits shadow 03:05:34 51° 194° (SSW) 1,844 7.6 -31.2°
Maximum altitude 03:07:27 59° 153° (SSE) 1,716 7.6 -30.9°
Drops below altitude 10° 03:16:34 10° 77° (ENE) 3,730 10.4 -29.5°
Sets 03:19:43 0° 74° (ENE) 4,738 11.3 -29.0°
